Regional Weather Roundup
Issued by NWS Glasgow, MT

Home | Current Version | Previous Version | Text Only | Print | Product List | Glossary On
Versions: 1 2 3 4 5 6 7 8 9 10 11 12 13 14 15 16 17 18 19 20 21 22 23 24 25 26 27 28 29 30 31 32 33 34 35 36 37 38 39 40 41 42 43 44 45 46 47 48 49 50
000
ASUS45 KGGW 180415
RWRGGW
HOURLY REGIONAL WEATHER ROUNDUP FOR NORTHEAST MONTANA
NATIONAL WEATHER SERVICE GLASGOW MONTANA
900 PM MST WED JAN 17 2018

NOTE: "FAIR" INDICATES FEW OR NO CLOUDS BELOW 12,000 FEET WITH NO
SIGNIFICANT WEATHER AND/OR OBSTRUCTIONS TO VISISBILITY.

NORTHEAST MONTANA


CITY           SKY/WX    TMP DP  RH WIND       PRES   REMARKS
GLASGOW        MOCLDY    20  16  84 SE7       29.92F
PLENTYWOOD       N/A     29  21  72 NW8         N/A
WOLF POINT     PTCLDY    10   5  80 NE7       29.97F
JORDAN           N/A     34  24  67 VRB6      29.91F
WINNETT          N/A     35  24  64 S8G16       N/A
SIDNEY         CLEAR     19  14  81 S8        29.97F
GLENDIVE       CLEAR     20  15  81 SE13      29.98F
MALTA            N/A     14  14 100 E1          N/A
SCOBEY           N/A     21  10  62 CALM      29.90

FORT PECK REPORTS


CITY           SKY/WX    TMP DP  RH WIND       PRES   REMARKS
FORT PECK        N/A     24  20  84 SE7         N/A
THE PINES        N/A     31  21  66 NE2         N/A

SOUTHEAST MONTANA


CITY           SKY/WX    TMP DP  RH WIND       PRES   REMARKS
BILLINGS       CLOUDY    39  21  48 SW24      30.02F
MILES CITY     CLOUDY    21  15  78 S6        30.00F
BAKER          PTCLDY    35  23  61 SW20G28   30.00F
LIVINGSTON     CLOUDY    42  26  53 SW40G55   30.05F

CENTRAL MONTANA


CITY           SKY/WX    TMP DP  RH WIND       PRES   REMARKS
HAVRE          CLOUDY    31  23  72 W6        29.89F
LEWISTOWN      CLOUDY    41  24  51 SW16      29.95F
GREAT FALLS    CLOUDY    43  21  41 SW21      29.93F
CUT BANK       CLOUDY    46  29  51 W15G31    29.86F
HELENA         MOCLDY    24  20  84 CALM      30.10F
BUTTE          CLEAR     19  13  77 CALM      30.13S
BOZEMAN        MOCLDY    21  16  81 NW6       30.14S

WESTERN MONTANA


CITY           SKY/WX    TMP DP  RH WIND       PRES   REMARKS
MISSOULA       MOCLDY    30  25  81 CALM      30.07F
KALISPELL      NOT AVBL

NORTH DAKOTA


CITY           SKY/WX    TMP DP  RH WIND       PRES   REMARKS
WILLISTON      CLOUDY    25  18  74 SW15      29.95F
DICKINSON      CLEAR     25  18  74 W13       29.96F
MINOT          MOCLDY    37  22  54 SW24G35   29.87F
BISMARCK       MOCLDY    29  21  72 SW9       30.00F

SOUTHERN SASKATCHEWAN


CITY           SKY/WX    TMP DP  RH WIND       PRES   REMARKS
REGINA         PTCLDY    21  14  73 W7        29.82F
ESTEVAN        CLEAR     23  16  74 SW12G17   29.86F
SWIFT CURRENT  PTCLDY    25  16  68 SW10      29.80F




USA.gov is the U.S. government's official web portal to all federal, state and local government web resources and services.